Temperature
19 20 20 21 21 20 18 17 17 18 17 18 17 16 19 20 20 20 20 20 19 19 18 17 16 15 14 14 13 12 12 11 11 10 10 10 9 9 9 9 8 8 8 8
21 22 21 21 21 21 20 19 18 19 18 17 18 18 18 19 20 20 20 20 19 18 18 17 16 15 14 13 13 12 11 11 10 10 10 9 9 9 9 9 8 8 8 7
19 20 21 21 22 22 22 20 19 19 19 18 17 16 19 20 20 21 20 20 19 18 17 16 15 15 14 13 12 12 11 11 10 10 9 9 9 8 8 8 8 8 7 7
18 21 22 20 21 21 21 21 19 19 18 17 18 21 22 22 21 21 20 19 19 18 17 16 15 14 14 13 12 12 11 10 10 9 9 9 8 8 8 8 7 7 7 7
16 18 19 20 21 21 21 21 20 18 18 18 18 19 20 22 21 21 20 19 19 18 17 16 15 14 14 13 12 11 11 10 9 9 8 8 8 8 7 7 7 7 7 7
16 18 19 20 21 22 21 21 20 18 17 17 17 16 18 22 21 21 20 19 19 18 17 16 15 14 14 13 12 11 11 10 9 8 8 8 8 7 7 7 7 7 7 7
16 17 18 19 20 21 21 19 22 21 21 19 17 20 23 23 22 21 21 20 19 18 17 16 15 14 14 13 12 11 11 10 9 8 8 8 7 7 7 7 7 7 8 8
15 17 18 20 20 19 20 23 24 24 23 22 23 23 23 22 22 22 21 20 19 18 17 16 15 14 14 13 12 11 11 10 9 9 8 7 7 7 7 7 7 8 8 8
16 18 20 21 21 23 23 23 24 24 25 24 23 23 23 22 22 22 21 20 19 18 17 16 15 14 14 13 12 12 11 10 10 9 8 7 7 7 7 7 7 8 8 8
15 16 20 23 23 24 24 24 25 25 24 24 23 23 23 23 22 22 21 20 19 17 17 16 15 15 14 13 13 12 11 10 10 9 8 8 7 7 7 7 8 8 8 8
15 16 19 23 24 24 24 24 24 25 24 24 23 23 23 23 23 22 21 20 18 17 17 16 15 15 14 13 13 12 11 10 9 9 8 8 8 7 7 8 7 7 8 8
16 19 17 20 21 21 22 22 23 23 23 23 23 23 23 23 22 22 21 20 18 17 17 16 15 15 14 13 12 12 11 10 9 9 8 8 8 8 8 8 8 8 8 8
19 19 18 18 18 19 19 20 21 21 21 21 21 21 21 21 21 20 20 19 18 17 17 16 15 14 14 13 12 12 11 10 9 9 8 8 7 7 8 9 9 8 8 8
17 17 15 15 15 16 17 18 19 19 19 19 20 20 20 19 19 19 19 18 17 17 16 16 15 14 13 13 12 11 11 10 9 8 8 7 7 7 7 8 8 9 9 8
14 14 13 13 15 16 16 17 17 17 17 18 18 18 18 18 18 18 18 17 17 16 16 16 15 14 13 12 12 11 11 10 9 8 8 7 7 7 7 7 8 8 8 8
13 13 14 14 14 14 15 15 15 15 15 16 16 16 16 16 16 17 17 16 16 16 16 15 15 14 13 12 12 11 10 9 9 8 8 7 7 7 7 7 8 8 8 8
12 12 12 12 12 13 13 13 13 14 14 15 15 15 15 15 16 16 16 16 15 15 15 15 14 13 13 12 11 11 10 9 8 8 7 7 7 7 7 7 8 8 8 8
12 12 12 12 12 12 13 13 13 13 13 14 14 14 14 14 14 14 14 14 14 14 14 14 14 13 12 12 11 10 10 9 8 8 7 7 7 7 7 7 7 8 8 8
12 12 12 12 12 12 12 12 13 13 13 13 13 13 13 13 13 13 13 13 13 13 14 13 13 13 12 11 11 10 9 9 8 7 7 7 7 7 7 7 7 8 8 8
11 11 11 12 12 12 12 12 12 12 12 12 12 12 12 12 12 12 12 12 12 12 12 12 12 12 11 11 10 9 9 8 8 7 7 6 6 6 7 7 7 7 8 8
11 11 11 11 11 11 11 11 11 11 11 11 11 11 11 11 11 11 11 11 11 11 11 11 11 11 11 10 9 9 8 8 7 7 6 6 6 6 6 6 7 7 7 7
11 10 10 10 10 10 11 11 10 10 10 10 10 10 10 10 10 10 10 10 10 11 11 11 10 10 10 9 9 8 7 7 7 6 6 6 6 6 6 6 7 7 7 7
10 10 9 9 9 9 10 10 10 10 10 10 10 10 9 9 9 9 9 9 9 9 9 9 9 9 9 8 8 7 7 6 6 6 5 5 5 5 5 6 6 7 7 7
9 9 9 9 9 9 9 9 9 9 9 9 9 9 9 9 9 9 9 8 9 9 9 9 8 8 7 7 7 6 6 6 5 5 5 4 4 4 5 5 6 6 7 7
9 9 9 9 9 9 9 9 9 9 9 9 9 9 8 8 8 8 8 8 8 8 8 7 7 7 6 6 6 6 5 5 5 4 4 4 3 4 4 5 6 6 6 7
9 8 8 8 8 8 8 8 8 8 8 8 8 8 8 8 8 8 7 7 7 7 6 6 6 5 5 5 5 4 4 4 4 3 3 3 3 3 4 4 5 6 6 7
8 8 8 8 8 8 8 8 8 8 8 8 8 8 8 7 7 7 7 6 6 6 5 5 5 4 4 4 4 3 3 3 3 3 3 3 2 3 3 4 5 6 6 7
Wind_Speed
7 6 4 6 8 6 8 8 9 9 9 11 10 10 9 8 7 7 7 8 8 8 8 7 7 7 7 8 8 7 6 7 9 8 7 7 8 8 8 8 9 9 10 10
4 3 4 6 7 5 6 5 7 6 9 9 6 5 5 8 8 9 9 10 10 10 9 9 8 8 7 8 8 6 7 8 8 7 7 7 8 8 8 9 9 9 10 11
4 6 4 6 5 4 5 6 9 9 10 4 6 10 12 11 10 11 11 11 11 10 10 10 9 8 8 8 7 5 7 8 7 7 7 8 8 8 9 9 9 10 10 11
2 2 4 9 5 6 6 7 8 8 7 8 11 9 8 9 10 11 11 11 11 10 10 8 7 6 6 6 6 6 6 7 7 7 8 8 8 9 9 9 9 10 11 11
4 3 7 10 6 5 6 7 7 9 8 5 2 3 5 9 11 13 13 12 11 11 9 7 7 7 5 6 5 6 7 7 7 7 8 8 9 10 9 9 10 10 10 11
4 4 7 11 6 3 4 6 7 9 9 8 8 4 9 10 12 13 12 10 10 8 6 7 7 4 5 6 6 7 7 7 7 7 8 9 10 10 9 9 10 11 11 11
5 6 9 9 3 5 3 9 7 11 11 12 12 14 9 7 11 14 13 12 9 7 7 7 6 4 6 7 8 8 6 6 7 7 8 9 10 9 9 10 10 10 12 12
4 3 7 4 6 8 11 6 5 10 13 15 17 14 9 8 11 12 12 11 9 8 8 7 6 6 7 8 7 6 5 6 7 8 8 8 9 10 9 9 10 10 10 11
8 9 8 5 9 10 5 7 8 9 13 16 16 15 14 12 12 12 12 11 9 9 8 7 6 7 8 8 6 5 5 7 8 8 8 8 9 10 9 8 8 9 8 9
5 10 10 10 9 9 9 12 13 11 12 12 15 17 15 13 12 12 11 10 8 8 8 8 7 9 10 7 5 5 6 7 7 8 9 9 8 7 8 8 8 9 9 9
7 10 10 10 8 9 9 9 11 10 9 12 15 16 15 13 13 12 10 8 8 9 10 10 8 9 9 7 5 6 6 7 8 8 8 9 9 8 9 9 9 10 10 10
8 10 6 9 10 10 9 10 9 8 7 6 10 13 12 12 10 8 8 8 8 9 9 9 8 9 8 7 6 6 6 7 7 7 7 8 9 10 10 12 15 16 16 14
8 6 3 6 9 11 7 8 8 6 6 6 5 6 7 6 4 4 6 9 10 10 10 9 9 9 8 7 7 7 7 7 7 7 7 8 8 9 11 11 11 12 12 12
6 3 7 9 9 12 12 11 12 13 13 11 8 6 4 3 1 3 6 8 9 9 9 9 8 9 8 7 7 7 7 9 8 7 8 8 8 8 8 10 11 10 10 11
15 11 7 7 12 16 16 17 20 19 18 16 13 11 8 6 4 5 6 7 7 7 8 8 9 10 7 7 8 8 7 6 7 7 8 8 8 8 8 9 9 10 10 9
9 12 13 15 16 16 17 18 17 16 15 15 15 13 10 7 6 5 5 5 6 9 10 9 11 10 7 8 8 7 6 10 9 7 7 8 7 8 8 8 8 8 9 8
15 15 13 13 13 13 13 11 11 10 11 12 12 11 10 9 8 8 7 5 7 9 8 9 10 8 7 9 8 6 6 7 9 8 7 7 7 8 8 8 8 8 8 9
8 6 6 6 8 9 11 11 11 11 9 9 10 9 9 8 8 9 9 7 7 9 9 10 9 7 8 8 8 6 5 5 5 6 6 7 7 7 7 8 8 9 8 8
8 8 8 8 8 7 8 9 9 9 9 8 8 8 7 7 8 9 8 7 8 11 10 8 10 9 8 9 8 5 5 5 5 5 6 7 7 7 7 7 8 8 8 7
8 8 9 9 9 8 9 9 9 9 8 7 7 7 8 9 9 9 8 8 8 9 8 7 6 6 7 7 7 4 5 5 5 5 5 5 6 7 7 7 8 8 7 7
8 8 9 9 10 10 9 8 8 8 8 7 6 7 8 9 9 8 8 10 10 10 9 8 5 5 5 5 6 4 4 3 3 4 5 6 6 7 7 8 8 7 7 8
7 8 9 10 10 10 10 9 7 7 7 7 7 8 8 9 10 10 9 8 10 12 9 6 4 4 5 5 4 3 3 2 2 3 4 5 6 7 7 8 8 7 7 8
7 7 9 9 9 10 10 8 7 7 7 7 8 8 8 8 7 7 10 9 10 12 8 5 3 2 4 4 3 2 2 0 2 3 4 5 6 7 7 8 7 7 8 8
7 8 9 8 7 7 8 9 9 7 7 8 8 8 7 7 8 7 7 10 12 10 6 3 1 3 4 3 3 2 2 1 2 3 5 5 6 6 7 7 7 7 7 8
8 8 8 8 8 7 8 8 8 8 8 7 9 9 7 5 6 8 9 9 9 7 4 4 5 5 5 4 4 4 3 3 4 4 5 6 6 6 7 7 7 7 7 7
8 8 8 8 8 7 7 6 6 7 7 7 7 8 7 6 7 6 6 6 6 5 4 4 5 6 6 6 6 5 4 4 5 5 6 6 7 7 6 7 8 7 7 7
9 7 6 7 8 7 6 6 7 7 7 7 7 7 7 6 6 5 4 3 4 4 5 5 6 6 6 6 6 5 5 5 5 5 6 6 6 6 7 8 6 6 6 7
Wind_Direction
231 242 245 254 263 209 194 195 192 229 228 247 229 218 217 214 215 220 234 236 235 239 247 253 258 262 262 266 268 261 255 256 258 262 264 266 269 271 272 272 275 273 276 277
274 266 265 266 271 231 209 201 216 245 257 249 232 197 219 222 214 221 234 238 239 240 245 248 249 255 262 266 267 260 254 259 265 268 269 270 271 275 278 278 279 278 277 277
259 306 357 311 263 231 231 212 189 213 239 220 192 206 217 218 212 218 228 232 235 237 236 239 241 243 251 258 266 262 259 266 270 269 271 272 276 279 280 282 281 281 279 277
191 29 254 250 244 221 232 244 212 228 243 213 213 217 226 212 206 219 226 230 234 235 235 237 235 238 246 259 263 264 267 272 273 271 273 276 277 279 279 280 280 282 282 279
141 198 269 294 279 189 192 262 222 221 239 207 124 57 290 229 209 217 220 221 227 226 223 227 233 235 244 260 264 267 269 271 272 273 277 280 281 281 281 281 283 284 284 282
140 176 235 253 270 166 126 273 242 201 207 170 132 182 250 233 209 221 226 225 225 220 211 225 236 223 232 254 262 264 265 268 273 275 276 279 280 281 280 279 282 286 285 282
180 216 256 255 250 129 165 244 237 198 197 174 186 210 226 218 208 216 220 222 215 204 209 223 219 196 227 247 255 257 264 271 276 276 277 279 279 279 281 284 285 286 286 285
150 194 262 250 151 183 221 240 225 208 202 196 215 228 235 234 223 217 218 218 202 199 217 221 203 198 225 244 250 256 262 272 278 281 284 287 283 285 284 282 286 289 289 290
190 219 245 247 221 242 237 242 240 219 217 208 220 232 233 234 231 223 216 210 194 196 214 222 207 201 224 241 241 248 261 273 282 288 288 285 282 284 289 285 283 287 288 290
243 266 265 273 266 263 240 235 247 236 225 205 216 230 231 231 229 223 215 203 189 189 210 226 218 214 225 233 231 240 261 276 285 291 294 292 285 280 282 285 286 288 288 289
256 274 294 296 279 278 285 268 261 254 234 219 220 232 230 229 228 221 208 191 181 193 211 225 222 224 230 229 223 240 261 276 286 287 288 294 292 283 279 273 267 273 282 281
244 253 244 275 299 313 307 298 287 278 273 249 225 237 237 236 235 215 197 183 187 200 212 223 222 229 232 225 217 232 262 277 282 288 291 294 299 303 281 267 272 265 259 259
261 296 314 309 335 344 344 349 360 6 343 326 303 264 258 255 243 200 193 190 199 206 213 218 218 228 231 222 213 224 248 268 280 285 291 296 300 304 312 311 296 284 278 272
338 9 33 16 5 13 24 28 36 34 25 16 4 358 347 324 313 212 212 210 208 210 215 215 219 232 230 214 212 228 247 266 275 279 285 290 293 296 299 303 310 310 307 297
36 53 62 35 33 32 32 35 35 27 19 17 16 16 14 6 332 276 244 223 208 213 222 216 224 236 221 207 213 229 246 261 271 279 283 286 290 293 296 297 296 298 304 305
40 46 42 39 33 28 29 31 30 20 14 12 12 6 358 347 323 299 271 229 213 228 230 222 232 236 209 204 213 230 246 264 276 282 287 292 294 297 301 302 302 301 302 302
48 36 25 24 20 19 20 19 16 7 4 5 359 352 351 346 334 320 302 276 253 253 245 232 239 234 209 205 210 225 244 267 282 287 286 290 294 298 301 301 300 301 299 296
60 46 29 20 10 4 1 0 359 355 350 341 342 348 349 342 323 309 304 299 284 276 265 248 241 230 215 208 209 218 233 255 270 281 288 292 296 298 301 300 300 301 306 310
33 23 10 4 356 347 341 338 335 331 330 334 337 332 323 317 311 308 307 300 287 282 280 264 241 226 219 212 206 209 227 252 269 280 287 294 301 304 305 305 304 305 307 312
14 5 356 346 341 336 326 324 322 320 321 324 322 326 331 327 324 321 316 300 283 278 287 285 256 230 218 210 201 202 219 243 263 280 291 298 304 309 310 310 310 311 313 313
351 342 338 333 326 321 316 313 311 308 310 315 317 319 317 315 320 322 320 314 309 306 300 282 258 233 213 195 190 196 216 236 260 281 295 303 307 311 311 312 313 314 316 316
327 325 324 324 323 319 315 312 305 303 309 314 317 320 323 322 323 321 309 297 305 312 311 294 273 231 197 178 176 186 202 224 265 292 303 308 311 312 313 314 315 317 318 319
310 311 314 315 314 308 311 314 313 312 308 306 307 308 307 304 305 308 313 315 318 317 315 303 285 206 163 151 151 156 162 212 306 310 311 311 311 311 312 314 317 320 322 325
300 302 303 303 311 318 320 317 316 310 301 297 294 294 297 304 309 304 300 311 323 323 324 326 42 108 117 111 114 107 81 20 342 327 320 316 316 315 314 317 321 324 325 329
289 291 295 306 310 302 294 300 308 308 309 305 301 300 299 287 288 304 313 321 331 337 350 24 62 82 87 84 79 67 48 24 360 340 329 323 321 319 318 321 326 328 329 332
282 282 280 276 273 273 278 285 287 290 293 294 297 298 304 308 309 313 321 335 356 14 30 47 61 70 73 73 65 53 36 15 359 346 335 328 323 323 323 325 328 332 331 332
283 279 279 287 287 279 276 277 278 283 284 281 284 291 299 308 317 325 339 1 21 40 53 59 62 64 64 61 54 41 27 11 358 348 340 333 329 326 325 326 329 334 337 337
Height
1512 1507 1508 1507 1504 1506 1512 1514 1520 1513 1511 1499 1495 1494 1494 1496 1499 1501 1503 1504 1505 1505 1505 1505 1503 1501 1499 1497 1496 1494 1491 1489 1487 1485 1482 1479 1476 1473 1470 1467 1464 1461 1458 1455
1508 1503 1505 1504 1499 1498 1501 1504 1506 1505 1502 1489 1489 1491 1493 1495 1496 1498 1500 1501 1502 1502 1502 1501 1499 1497 1495 1493 1491 1489 1487 1484 1482 1479 1476 1473 1470 1467 1464 1460 1457 1454 1451 1448
1517 1508 1504 1510 1496 1494 1494 1494 1498 1501 1493 1487 1488 1488 1488 1491 1493 1494 1496 1498 1498 1498 1497 1496 1495 1493 1491 1489 1487 1484 1482 1479 1477 1474 1470 1467 1464 1461 1457 1454 1450 1447 1444 1442
1519 1512 1518 1506 1488 1488 1490 1488 1488 1487 1485 1483 1482 1483 1486 1488 1489 1491 1493 1493 1494 1493 1492 1491 1490 1489 1487 1485 1482 1479 1477 1474 1471 1468 1464 1461 1458 1455 1451 1448 1444 1441 1438 1436
1523 1521 1514 1498 1485 1485 1488 1488 1481 1482 1481 1481 1483 1484 1484 1484 1485 1486 1488 1488 1488 1488 1487 1487 1486 1484 1482 1480 1478 1475 1471 1468 1465 1462 1458 1455 1452 1449 1445 1442 1438 1435 1433 1430
1521 1520 1520 1498 1480 1480 1485 1490 1476 1477 1477 1479 1482 1489 1482 1478 1480 1481 1482 1483 1483 1483 1483 1482 1482 1480 1478 1476 1473 1470 1466 1463 1459 1456 1452 1449 1446 1442 1439 1436 1433 1430 1427 1425
1517 1518 1507 1484 1479 1482 1495 1491 1471 1471 1472 1474 1475 1474 1473 1473 1474 1475 1476 1477 1478 1479 1479 1479 1478 1476 1474 1471 1468 1465 1461 1457 1454 1450 1447 1443 1440 1437 1434 1431 1427 1425 1422 1419
1517 1516 1506 1477 1479 1482 1478 1468 1467 1466 1466 1467 1466 1466 1468 1469 1469 1470 1471 1472 1473 1474 1474 1474 1473 1471 1468 1466 1463 1459 1456 1452 1448 1445 1441 1438 1435 1432 1429 1426 1422 1419 1417 1414
1500 1496 1479 1475 1474 1470 1469 1466 1464 1462 1461 1461 1462 1462 1462 1463 1464 1464 1465 1466 1468 1468 1469 1469 1468 1466 1464 1461 1458 1455 1451 1447 1443 1440 1437 1433 1430 1427 1424 1421 1418 1414 1411 1408
1490 1481 1473 1470 1468 1465 1463 1461 1459 1458 1457 1457 1456 1456 1456 1457 1458 1458 1459 1460 1462 1463 1464 1464 1463 1461 1459 1456 1453 1450 1446 1443 1439 1435 1432 1429 1426 1423 1419 1416 1413 1410 1406 1403
1485 1476 1470 1466 1465 1462 1460 1457 1455 1453 1452 1451 1451 1450 1450 1450 1451 1451 1452 1454 1457 1458 1459 1459 1459 1457 1455 1452 1449 1445 1442 1438 1435 1431 1428 1425 1422 1419 1415 1412 1409 1405 1402 1399
1480 1470 1470 1466 1462 1459 1455 1452 1451 1449 1448 1447 1446 1445 1445 1445 1445 1446 1447 1449 1452 1454 1455 1455 1454 1452 1450 1448 1445 1441 1438 1435 1431 1428 1424 1421 1417 1414 1411 1408 1404 1401 1398 1395
1471 1467 1467 1464 1460 1456 1452 1450 1448 1447 1446 1445 1443 1443 1442 1442 1442 1442 1444 1446 1448 1449 1450 1450 1449 1447 1446 1443 1440 1437 1434 1431 1427 1424 1421 1417 1413 1409 1405 1402 1400 1397 1394 1390
1467 1465 1465 1464 1461 1457 1453 1451 1448 1447 1446 1444 1442 1441 1440 1440 1440 1440 1441 1443 1445 1446 1445 1444 1444 1443 1441 1439 1436 1434 1430 1427 1424 1420 1417 1414 1410 1406 1403 1398 1395 1391 1389 1386
1471 1469 1470 1468 1463 1458 1455 1452 1449 1448 1447 1445 1444 1442 1441 1440 1440 1440 1440 1441 1441 1440 1440 1439 1439 1438 1436 1434 1432 1429 1426 1423 1420 1417 1413 1410 1407 1403 1399 1395 1392 1388 1385 1382
1476 1473 1471 1467 1464 1462 1458 1455 1453 1453 1451 1449 1446 1445 1443 1442 1440 1439 1438 1438 1437 1435 1435 1435 1434 1433 1431 1429 1427 1425 1422 1419 1416 1413 1409 1406 1403 1399 1395 1392 1388 1385 1381 1378
1476 1475 1473 1471 1469 1466 1464 1461 1459 1457 1454 1451 1448 1447 1444 1442 1440 1438 1436 1435 1433 1431 1430 1429 1428 1428 1426 1424 1422 1420 1417 1415 1412 1408 1405 1402 1399 1395 1392 1388 1385 1382 1378 1375
1482 1481 1479 1477 1474 1470 1467 1464 1461 1458 1455 1453 1450 1447 1444 1441 1438 1436 1433 1430 1428 1426 1425 1424 1422 1421 1419 1418 1416 1414 1412 1410 1407 1404 1401 1398 1395 1391 1388 1385 1382 1379 1375 1372
1484 1482 1480 1478 1475 1472 1468 1465 1461 1458 1455 1452 1449 1446 1443 1439 1436 1432 1429 1425 1422 1419 1417 1417 1415 1413 1412 1411 1410 1408 1407 1405 1402 1400 1397 1394 1391 1387 1384 1381 1378 1375 1372 1369
1483 1481 1479 1476 1473 1470 1466 1463 1460 1457 1453 1450 1447 1443 1440 1436 1433 1429 1425 1421 1418 1414 1411 1409 1407 1406 1405 1404 1404 1403 1401 1399 1397 1395 1392 1389 1386 1383 1380 1377 1375 1372 1369 1366
1482 1479 1476 1473 1470 1467 1463 1459 1456 1453 1450 1447 1444 1440 1437 1433 1430 1425 1421 1416 1413 1409 1405 1402 1400 1399 1398 1398 1398 1397 1396 1395 1393 1391 1388 1385 1382 1379 1376 1374 1371 1369 1366 1363
1479 1476 1473 1469 1466 1462 1459 1455 1452 1449 1446 1444 1441 1437 1434 1430 1426 1422 1418 1413 1408 1404 1400 1396 1394 1393 1392 1392 1392 1392 1392 1390 1389 1386 1384 1380 1377 1374 1372 1370 1368 1366 1363 1361
1476 1473 1470 1466 1462 1459 1455 1452 1449 1446 1444 1441 1438 1434 1431 1427 1423 1418 1413 1409 1404 1399 1395 1392 1389 1388 1388 1388 1388 1388 1387 1386 1385 1382 1379 1376 1373 1370 1368 1366 1365 1363 1361 1358
1473 1470 1467 1464 1460 1456 1453 1450 1447 1444 1441 1438 1435 1432 1428 1423 1419 1415 1410 1405 1400 1396 1391 1388 1386 1385 1385 1385 1384 1384 1383 1382 1380 1378 1375 1372 1369 1367 1365 1363 1362 1361 1359 1356
1469 1466 1463 1460 1457 1453 1450 1447 1444 1441 1438 1434 1431 1428 1424 1420 1415 1411 1406 1401 1397 1392 1389 1386 1384 1382 1382 1382 1381 1381 1380 1378 1376 1374 1371 1368 1366 1363 1362 1360 1359 1358 1357 1355
1464 1461 1458 1456 1453 1449 1446 1443 1440 1436 1433 1429 1426 1423 1420 1416 1412 1407 1402 1398 1394 1390 1386 1384 1382 1380 1380 1379 1379 1378 1376 1375 1372 1370 1368 1365 1363 1361 1359 1358 1357 1356 1355 1353
1459 1456 1453 1450 1447 1444 1441 1438 1434 1431 1428 1425 1421 1418 1415 1411 1407 1403 1399 1395 1391 1388 1385 1383 1381 1380 1379 1378 1377 1375 1374 1372 1369 1367 1365 1362 1360 1358 1357 1356 1355 1354 1353 1352